Temp
85 87 87 85 88 87 86 85 81 82 82 83 81 80 78 75 79 77 75 73 74 74
84 86 86 84 84 86 85 84 82 83 82 81 81 78 77 80 77 77 75 73 72 74
85 86 84 83 84 84 84 84 82 82 81 79 80 80 78 79 78 75 75 75 73 74
84 84 83 83 83 82 82 82 82 82 78 80 79 79 77 77 75 75 73 75 74 73
83 83 81 81 82 82 81 83 83 82 81 81 80 79 75 74 75 75 74 74 73 74
81 81 80 80 81 82 81 82 82 82 81 81 81 75 75 77 75 76 74 73 68 67
80 80 80 81 80 81 82 81 81 81 82 83 82 77 77 78 77 76 73 70 68 65
81 81 81 81 81 81 81 82 83 82 82 83 82 77 76 78 76 74 71 67 65 65
82 82 78 76 78 80 80 81 81 76 77 77 73 50 55 65 74 73 70 66 63 63
82 79 75 76 75 78 78 75 73 74 74 75 74 50 51 53 73 70 70 65 62 61
84 81 79 75 75 77 76 76 75 76 76 75 70 49 48 51 74 72 70 64 62 62
85 82 81 76 76 75 74 73 74 76 75 73 71 48 49 59 71 69 66 64 63 64
86 83 78 74 75 76 75 74 75 73 75 62 71 48 47 57 69 68 63 62 59 51
79 78 75 75 77 75 73 73 72 73 73 72 70 64 47 50 73 69 63 64 65 61
MSLP
998.31 998.86 999.22 999.65 999.56 1000.07 1000.72 1001.47 1002.68 1003.21 1003.67 1003.89 1004.52 1004.95 1005.49 1005.85 1005.92 1006.12 1006.61 1006.89 1007.01 1007.15
998.49 998.54 998.85 999.29 1000.03 1000.28 1000.68 1001.67 1002.56 1003.01 1003.44 1004.03 1004.50 1004.86 1005.27 1005.22 1005.71 1005.93 1006.42 1006.92 1007.19 1007.19
998.21 998.62 999.20 999.94 999.85 1000.42 1000.99 1001.63 1002.40 1002.88 1003.44 1003.86 1004.25 1004.71 1005.13 1005.01 1005.52 1006.00 1006.33 1006.59 1006.97 1007.07
998.41 999.02 999.71 999.89 1000.37 1000.95 1001.53 1001.97 1002.39 1002.85 1003.46 1003.82 1004.24 1004.63 1005.05 1005.12 1005.50 1005.86 1006.23 1006.27 1006.63 1006.89
998.82 999.36 999.79 1000.12 1000.63 1001.20 1001.72 1002.09 1002.33 1002.72 1003.19 1003.62 1004.06 1004.58 1005.09 1005.17 1005.22 1005.55 1006.03 1006.35 1006.61 1006.78
999.01 999.54 999.89 1000.32 1000.81 1001.33 1001.83 1002.07 1002.32 1002.75 1003.09 1003.38 1003.69 1004.50 1004.88 1004.68 1005.06 1005.59 1006.00 1006.50 1007.03 1007.13
999.13 999.61 1000.00 1000.52 1001.03 1001.35 1001.77 1002.08 1002.39 1002.72 1002.89 1003.15 1003.48 1004.30 1004.42 1004.49 1005.13 1005.66 1006.43 1006.97 1007.31 1007.67
999.29 999.73 1000.15 1000.59 1000.97 1001.42 1001.74 1002.00 1002.19 1002.52 1002.74 1003.04 1003.33 1004.24 1004.39 1004.70 1005.33 1005.80 1006.59 1007.28 1007.74 1007.79
999.10 999.59 1000.26 1000.89 1001.18 1001.48 1001.83 1002.00 1002.24 1002.92 1003.19 1003.48 1004.49 1005.11 1005.20 1005.66 1005.47 1005.98 1006.60 1007.29 1007.70 1007.82
998.90 999.67 1000.65 1001.12 1001.52 1001.68 1001.95 1002.47 1002.87 1003.20 1003.53 1003.99 1004.94 1005.64 1005.81 1006.05 1005.79 1006.09 1006.42 1007.27 1007.48 1007.77
998.70 999.56 1000.31 1001.09 1001.46 1001.73 1002.34 1002.72 1003.16 1003.44 1003.72 1004.34 1005.37 1006.13 1006.29 1006.25 1005.94 1006.12 1006.58 1007.33 1007.46 1007.77
998.37 999.23 999.95 1000.74 1001.47 1002.00 1002.69 1003.23 1003.42 1003.48 1003.95 1004.44 1005.42 1006.38 1006.45 1006.30 1006.13 1006.40 1006.95 1007.41 1007.70 1007.86
998.31 999.19 1000.16 1000.89 1001.58 1002.11 1002.66 1003.21 1003.44 1003.66 1003.98 1004.83 1005.40 1006.45 1006.52 1006.54 1006.27 1006.54 1007.18 1007.72 1008.08 1008.22
998.86 999.69 1000.51 1001.03 1001.59 1002.26 1002.81 1003.21 1003.60 1003.96 1004.35 1004.74 1005.18 1006.34 1006.67 1006.57 1006.00 1006.58 1007.18 1007.56 1007.96 1008.41
Wind_Speed
12 10 10 12 10 9 10 10 12 10 9 8 8 6 5 7 6 7 6 6 6 2
14 12 12 10 9 8 8 11 11 10 9 7 7 7 6 6 5 4 5 4 3 4
13 12 12 11 9 9 8 10 11 9 8 7 6 6 6 6 6 5 4 5 6 5
13 13 13 11 11 10 9 9 10 9 6 8 8 7 6 2 6 7 7 5 4 6
14 14 13 12 11 11 9 9 9 9 9 8 8 8 6 6 6 5 5 4 4 5
14 13 12 11 10 10 9 9 9 9 9 9 9 7 7 5 4 5 6 6 5 4
13 13 11 10 10 10 10 10 9 9 9 9 8 5 5 4 6 7 7 6 5 3
12 12 12 11 10 10 10 9 10 9 8 7 6 3 1 5 7 8 8 6 3 2
13 12 9 7 9 9 9 8 7 5 2 3 7 8 9 3 5 8 9 6 3 3
12 13 8 8 7 10 9 7 5 6 5 7 7 6 4 3 3 7 7 6 3 3
12 14 14 9 9 10 9 7 5 5 6 6 6 4 2 2 3 4 8 6 3 4
12 12 11 9 9 9 8 6 7 5 8 6 7 5 4 2 4 6 8 5 3 2
12 11 10 8 10 8 9 7 6 6 6 6 8 5 2 4 4 7 6 5 3 3
10 9 6 8 8 7 7 7 6 8 6 6 6 7 1 6 2 6 5 4 4 3
Wind_Direction
170 177 167 195 158 171 164 165 154 176 175 186 179 193 194 197 216 192 207 223 233 222
177 163 167 133 156 142 144 125 166 177 178 170 189 190 157 241 189 186 194 222 244 242
156 157 137 149 157 145 131 150 164 168 171 185 185 174 186 187 175 201 181 209 206 225
151 144 149 152 142 138 149 150 169 173 157 180 171 182 180 253 158 184 184 201 205 197
147 149 148 145 146 146 162 171 169 170 170 170 174 174 184 216 164 178 191 205 219 200
149 147 146 146 145 160 160 166 160 167 171 177 175 154 204 189 164 148 142 124 93 40
149 147 144 145 157 159 167 161 161 174 175 181 169 168 216 158 136 163 127 121 114 111
144 146 150 154 156 162 164 172 172 172 178 185 180 153 47 125 171 159 144 133 140 166
152 151 130 159 155 160 167 174 148 148 156 156 76 56 57 349 191 165 157 153 168 202
154 129 150 151 167 164 169 138 148 181 140 126 107 63 59 12 195 157 160 150 178 200
164 156 160 163 175 165 148 168 149 163 140 147 102 111 90 354 146 145 134 144 161 199
157 155 153 144 175 140 151 168 179 170 154 143 122 123 111 246 127 116 105 124 128 174
153 154 137 148 153 166 153 162 160 151 132 109 125 122 78 296 154 132 114 114 100 56
107 130 147 133 141 137 159 152 143 139 138 110 131 122 37 354 147 128 145 149 161 145